Location: Bailen
(14.1842°N, 120.7958°E)
Time: 17:53:40
(UTC+00:00)

CZ-3A R/B - Pass Details

Date: 12 January 2026
Orbit: 308 x 35980 km, 24.6° (Epoch: 17 February)

Event Time Altitude Azimuth Distance (km) Brightness Sun altitude
Rises 11:33:55 0° 236° (SW) 14,498 10.2 -25.5°
Reaches altitude 10° 11:47:07 10° 231° (SW) 16,653 10.1 -28.6°
Drops below altitude 10° 18:15:05 10° 257° (WSW) 35,990 10.6 -58.3°
Enters shadow 20:16:42 - 270° (W) 20,376 9.2 -30.1°
Exits shadow 21:05:03 22° 287° (WNW) 6,561 6.6 -18.9°
Maximum altitude 21:16:53 43° 345° (NNW) 2,044 4.4 -16.2°
Sets 21:22:58 0° 69° (ENE) 2,782 6.2 -14.8°
